WHSE22 YBTL-YBMD

Flight info

Callsign WHSE22
Flight time 2h 43m
Altitude 4000
Route YBTL N0150A040 OLSIN ATN 1700S14545E YBMD
Aircraft H47/M-SDFGRY/LB1

Departure

Time 2026-05-06 04:54
Airport Townsville Airport / RAAF Base Townsville (YBTL)

Arrival

Time 2026-05-06 07:37
Airport Bloomfield River Airport (YBMD)
Time Latitude Longitude Altitude Speed Heading
2026-05-06 04:46 -19.25909 146.75959 15 ft 0 kts 94°
2026-05-06 04:48 -19.25909 146.75961 15 ft 0 kts 95°
2026-05-06 04:49 -19.25910 146.75969 15 ft 4 kts 96°
2026-05-06 04:49 -19.25877 146.75992 15 ft 11 kts
2026-05-06 04:49 -19.25771 146.76004 15 ft 16 kts
2026-05-06 04:50 -19.25725 146.76009 15 ft 0 kts
2026-05-06 04:50 -19.25716 146.76009 15 ft 2 kts 358°
2026-05-06 04:50 -19.25694 146.76002 15 ft 4 kts 318°
2026-05-06 04:50 -19.25684 146.75966 15 ft 6 kts 270°
2026-05-06 04:51 -19.25664 146.75926 16 ft 7 kts 343°
2026-05-06 04:51 -19.25648 146.75922 15 ft 0 kts 343°
2026-05-06 04:53 -19.25647 146.75921 15 ft 2 kts 343°
2026-05-06 04:53 -19.25556 146.75898 75 ft 33 kts 353°
2026-05-06 04:53 -19.25093 146.75859 342 ft 95 kts 356°
2026-05-06 04:54 -19.24365 146.75723 721 ft 113 kts 346°
2026-05-06 04:54 -19.23700 146.75310 1252 ft 110 kts 320°
2026-05-06 04:54 -19.23254 146.74616 1640 ft 128 kts 297°
2026-05-06 04:54 -19.22700 146.73765 1159 ft 152 kts 305°
2026-05-06 04:55 -19.22013 146.72864 634 ft 159 kts 310°
2026-05-06 04:55 -19.21375 146.71954 838 ft 147 kts 309°
2026-05-06 04:55 -19.20739 146.71154 1211 ft 142 kts 312°
2026-05-06 04:55 -19.20039 146.70373 1427 ft 149 kts 316°
2026-05-06 04:56 -19.19152 146.69730 1356 ft 164 kts 329°
2026-05-06 04:56 -19.18155 146.69073 1054 ft 175 kts 325°
2026-05-06 04:56 -19.17151 146.68349 757 ft 167 kts 332°
2026-05-06 04:56 -19.16138 146.67930 858 ft 146 kts 343°
2026-05-06 04:57 -19.15189 146.67759 1253 ft 133 kts 355°
2026-05-06 04:57 -19.14266 146.67760 1670 ft 135 kts
2026-05-06 04:57 -19.13304 146.67794 1974 ft 142 kts
2026-05-06 04:57 -19.12272 146.67705 2056 ft 154 kts 353°
2026-05-06 04:58 -19.11196 146.67380 1864 ft 170 kts 341°
2026-05-06 04:58 -19.10056 146.66923 1518 ft 179 kts 339°
2026-05-06 04:58 -19.08913 146.66412 1515 ft 176 kts 338°
2026-05-06 04:58 -19.07818 146.65928 1860 ft 164 kts 340°
2026-05-06 04:59 -19.06750 146.65566 2201 ft 159 kts 345°
2026-05-06 04:59 -19.05680 146.65260 2369 ft 165 kts 346°
2026-05-06 04:59 -19.04532 146.64888 2373 ft 176 kts 342°
2026-05-06 04:59 -19.03401 146.64386 2441 ft 178 kts 336°
2026-05-06 05:00 -19.02292 146.63820 2585 ft 176 kts 335°
2026-05-06 05:00 -19.01172 146.63309 2794 ft 173 kts 339°
2026-05-06 05:00 -19.00045 146.62899 2940 ft 174 kts 343°
2026-05-06 05:00 -18.98857 146.62545 2985 ft 178 kts 346°
2026-05-06 05:01 -18.97663 146.62233 2989 ft 179 kts 347°
2026-05-06 05:01 -18.96446 146.61880 2972 ft 182 kts 345°
2026-05-06 05:01 -18.95225 146.61474 2936 ft 183 kts 344°
2026-05-06 05:01 -18.93985 146.61190 2875 ft 184 kts 353°
2026-05-06 05:02 -18.92711 146.61100 2834 ft 181 kts 359°
2026-05-06 05:02 -18.91465 146.61077 2837 ft 181 kts 357°
2026-05-06 05:02 -18.90199 146.60897 2797 ft 184 kts 348°
2026-05-06 05:02 -18.88952 146.60630 2752 ft 185 kts 345°
2026-05-06 05:03 -18.87691 146.60344 2726 ft 184 kts 343°
2026-05-06 05:03 -18.86442 146.60076 2720 ft 184 kts 343°
2026-05-06 05:03 -18.85182 146.59831 2730 ft 183 kts 343°
2026-05-06 05:03 -18.83934 146.59618 2742 ft 182 kts 343°
2026-05-06 05:04 -18.82669 146.59421 2764 ft 182 kts 341°
2026-05-06 05:04 -18.81412 146.59179 2768 ft 184 kts 338°
2026-05-06 05:04 -18.80161 146.58903 2748 ft 186 kts 336°
2026-05-06 05:04 -18.78895 146.58599 2690 ft 188 kts 333°
2026-05-06 05:05 -18.77631 146.58259 2606 ft 189 kts 331°
2026-05-06 05:05 -18.76341 146.57895 2476 ft 194 kts 322°
2026-05-06 05:05 -18.75034 146.57520 2276 ft 197 kts 321°
2026-05-06 05:05 -18.73702 146.57133 1982 ft 197 kts 339°
2026-05-06 05:06 -18.72399 146.56691 1689 ft 199 kts 318°
2026-05-06 05:06 -18.71123 146.56174 1351 ft 196 kts 350°
2026-05-06 05:06 -18.70063 146.55283 852 ft 202 kts 321°
2026-05-06 05:06 -18.69304 146.54077 741 ft 188 kts 315°
2026-05-06 05:07 -18.68721 146.52896 1061 ft 174 kts 312°
2026-05-06 05:07 -18.68020 146.51924 1526 ft 165 kts 330°
2026-05-06 05:07 -18.67110 146.51160 1827 ft 169 kts 343°
2026-05-06 05:07 -18.66090 146.50500 2007 ft 175 kts 348°
2026-05-06 05:08 -18.65024 146.49867 2243 ft 174 kts 348°
2026-05-06 05:08 -18.63953 146.49288 2483 ft 174 kts 352°
2026-05-06 05:08 -18.62842 146.48775 2696 ft 173 kts 355°
2026-05-06 05:08 -18.61744 146.48215 2828 ft 177 kts 349°
2026-05-06 05:09 -18.60712 146.47480 2854 ft 184 kts 340°
2026-05-06 05:09 -18.59677 146.46645 2785 ft 188 kts 338°
2026-05-06 05:09 -18.58628 146.45848 2741 ft 186 kts 340°
2026-05-06 05:09 -18.57565 146.45089 2736 ft 185 kts 342°
2026-05-06 05:10 -18.56472 146.44357 2776 ft 184 kts 345°
2026-05-06 05:10 -18.55360 146.43693 2845 ft 181 kts 348°
2026-05-06 05:10 -18.54236 146.43136 2940 ft 180 kts 354°
2026-05-06 05:10 -18.53042 146.42723 3021 ft 180 kts
2026-05-06 05:11 -18.51821 146.42349 3046 ft 183 kts 360°
2026-05-06 05:11 -18.50633 146.41844 2993 ft 188 kts 351°
2026-05-06 05:11 -18.49496 146.41114 2869 ft 191 kts 341°
2026-05-06 05:11 -18.48405 146.40343 2786 ft 190 kts 341°
2026-05-06 05:12 -18.47287 146.39606 2772 ft 188 kts 344°
2026-05-06 05:12 -18.46167 146.38938 2810 ft 185 kts 347°
2026-05-06 05:12 -18.45035 146.38299 2892 ft 182 kts 348°
2026-05-06 05:12 -18.43896 146.37722 3005 ft 181 kts 353°
2026-05-06 05:13 -18.42779 146.37117 3065 ft 183 kts 347°
2026-05-06 05:13 -18.41712 146.36389 3089 ft 184 kts 342°
2026-05-06 05:13 -18.40669 146.35587 3112 ft 184 kts 339°
2026-05-06 05:13 -18.39661 146.34763 3134 ft 184 kts 338°
2026-05-06 05:14 -18.38643 146.33922 3168 ft 184 kts 338°
2026-05-06 05:14 -18.37622 146.33104 3226 ft 188 kts 338°
2026-05-06 05:14 -18.36570 146.32294 3286 ft 189 kts 338°
2026-05-06 05:14 -18.35538 146.31427 3299 ft 188 kts 336°
2026-05-06 05:15 -18.34522 146.30568 3299 ft 186 kts 338°
2026-05-06 05:15 -18.33451 146.29828 3289 ft 186 kts 345°
2026-05-06 05:15 -18.32306 146.29187 3266 ft 186 kts 349°
2026-05-06 05:15 -18.31132 146.28608 3243 ft 185 kts 352°
2026-05-06 05:16 -18.29968 146.28061 3217 ft 185 kts 352°
2026-05-06 05:16 -18.28794 146.27467 3213 ft 188 kts 349°
2026-05-06 05:16 -18.27634 146.26827 3222 ft 188 kts 348°
2026-05-06 05:16 -18.26479 146.26203 3270 ft 186 kts 349°
2026-05-06 05:17 -18.25299 146.25651 3317 ft 185 kts 354°
2026-05-06 05:17 -18.24119 146.25097 3328 ft 188 kts 351°
2026-05-06 05:17 -18.22956 146.24434 3331 ft 191 kts 347°
2026-05-06 05:17 -18.21815 146.23747 3352 ft 189 kts 347°
2026-05-06 05:18 -18.20641 146.23161 3363 ft 187 kts 353°
2026-05-06 05:18 -18.19436 146.22628 3358 ft 187 kts 353°
2026-05-06 05:18 -18.18266 146.22028 3322 ft 188 kts 348°
2026-05-06 05:18 -18.17173 146.21266 3235 ft 191 kts 337°
2026-05-06 05:19 -18.16194 146.20296 3084 ft 192 kts 329°
2026-05-06 05:19 -18.15140 146.19461 2996 ft 191 kts 341°
2026-05-06 05:19 -18.13974 146.18788 2926 ft 188 kts 347°
2026-05-06 05:19 -18.12799 146.18232 2949 ft 186 kts 353°
2026-05-06 05:20 -18.11575 146.17759 2903 ft 188 kts 356°
2026-05-06 05:20 -18.10748 146.17445 2808 ft 192 kts 355°
2026-05-06 05:20 -18.09082 146.16736 2516 ft 195 kts 353°
2026-05-06 05:20 -18.07804 146.16271 2293 ft 195 kts 356°
2026-05-06 05:21 -18.06502 146.15880 2142 ft 192 kts
2026-05-06 05:21 -18.05202 146.15603 2123 ft 187 kts
2026-05-06 05:21 -18.03962 146.15326 2250 ft 181 kts
2026-05-06 05:21 -18.03149 146.15157 2386 ft 177 kts
2026-05-06 05:22 -18.01922 146.14946 2603 ft 177 kts
2026-05-06 05:22 -18.00712 146.14790 2784 ft 178 kts
2026-05-06 05:22 -17.99430 146.14615 2702 ft 190 kts
2026-05-06 05:22 -17.98132 146.14256 2479 ft 197 kts 357°
2026-05-06 05:23 -17.96851 146.13766 2272 ft 197 kts 356°
2026-05-06 05:23 -17.95536 146.13378 2165 ft 193 kts
2026-05-06 05:23 -17.93009 146.12707 2405 ft 181 kts
2026-05-06 05:24 -17.91780 146.12430 2627 ft 179 kts
2026-05-06 05:24 -17.90577 146.12080 2735 ft 184 kts
2026-05-06 05:24 -17.89366 146.11622 2810 ft 183 kts 358°
2026-05-06 05:24 -17.88162 146.11227 2984 ft 180 kts
2026-05-06 05:25 -17.86943 146.10968 3089 ft 181 kts
2026-05-06 05:25 -17.85679 146.10827 3187 ft 185 kts 12°
2026-05-06 05:25 -17.84400 146.10534 3038 ft 193 kts
2026-05-06 05:25 -17.83112 146.10079 2933 ft 195 kts 356°
2026-05-06 05:26 -17.81862 146.09541 2859 ft 193 kts 353°
2026-05-06 05:26 -17.80635 146.08987 2933 ft 190 kts 354°
2026-05-06 05:26 -17.79425 146.08470 3132 ft 188 kts 355°
2026-05-06 05:26 -17.78220 146.08018 3351 ft 182 kts
2026-05-06 05:27 -17.77013 146.07638 3517 ft 178 kts
2026-05-06 05:27 -17.75823 146.07250 3342 ft 183 kts 358°
2026-05-06 05:27 -17.74599 146.06774 2998 ft 188 kts 355°
2026-05-06 05:27 -17.73411 146.06268 2801 ft 182 kts 353°
2026-05-06 05:28 -17.72289 146.05726 2843 ft 173 kts 353°
2026-05-06 05:28 -17.71171 146.05229 2817 ft 178 kts 356°
2026-05-06 05:28 -17.70005 146.04738 2687 ft 182 kts 354°
2026-05-06 05:28 -17.68850 146.04199 2558 ft 179 kts 353°
2026-05-06 05:29 -17.67722 146.03672 2546 ft 175 kts 355°
2026-05-06 05:29 -17.66592 146.03262 2543 ft 173 kts
2026-05-06 05:29 -17.65394 146.03057 2526 ft 174 kts 12°
2026-05-06 05:29 -17.64201 146.02907 2528 ft 176 kts 11°
2026-05-06 05:30 -17.62998 146.02576 2478 ft 179 kts 360°
2026-05-06 05:30 -17.61834 146.02155 2426 ft 177 kts 359°
2026-05-06 05:30 -17.60621 146.01838 2097 ft 181 kts
2026-05-06 05:30 -17.59392 146.01908 1758 ft 173 kts 26°
2026-05-06 05:31 -17.58223 146.02082 1311 ft 158 kts 27°
2026-05-06 05:31 -17.57251 146.02004 1093 ft 126 kts 352°
2026-05-06 05:31 -17.56568 146.01573 821 ft 107 kts 337°
2026-05-06 05:31 -17.56013 146.01135 676 ft 92 kts 333°
2026-05-06 05:32 -17.55899 146.00626 671 ft 64 kts 256°
2026-05-06 05:32 -17.56045 146.00171 689 ft 60 kts 224°
2026-05-06 05:32 -17.56442 145.99946 681 ft 72 kts 186°
2026-05-06 05:32 -17.56893 146.00072 669 ft 75 kts 137°
2026-05-06 05:33 -17.56809 146.00568 473 ft 83 kts 55°
2026-05-06 05:33 -17.56357 146.00915 238 ft 62 kts 32°
2026-05-06 05:33 -17.56132 146.01092 123 ft 26 kts 22°
2026-05-06 05:33 -17.56074 146.01146 44 ft 1 kts 40°
2026-05-06 05:34 -17.56043 146.01192 45 ft 12 kts 60°
2026-05-06 05:34 -17.56019 146.01273 39 ft 8 kts 69°
2026-05-06 05:34 -17.56010 146.01344 37 ft 9 kts 87°
2026-05-06 05:34 -17.56001 146.01427 36 ft 7 kts 75°
2026-05-06 05:35 -17.55974 146.01453 35 ft 4 kts 16°
2026-05-06 05:35 -17.55957 146.01449 35 ft 2 kts 330°
2026-05-06 05:35 -17.55947 146.01440 35 ft 1 kts 298°
2026-05-06 05:35 -17.55947 146.01438 35 ft 1 kts 252°
2026-05-06 05:36 -17.55948 146.01438 35 ft 0 kts 240°
2026-05-06 05:36 -17.55953 146.01427 34 ft 2 kts 238°
2026-05-06 05:36 -17.55961 146.01421 38 ft 0 kts 182°
2026-05-06 05:36 -17.55954 146.01419 37 ft 2 kts 144°
2026-05-06 05:37 -17.55953 146.01418 37 ft 0 kts 140°
2026-05-06 06:26 -17.55964 146.01424 37 ft 6 kts 153°
2026-05-06 06:26 -17.56004 146.01401 37 ft 11 kts 263°
2026-05-06 06:26 -17.56012 146.01311 37 ft 12 kts 264°
2026-05-06 06:27 -17.56022 146.01229 37 ft 9 kts 256°
2026-05-06 06:27 -17.56033 146.01221 38 ft 5 kts 175°
2026-05-06 06:27 -17.56074 146.01254 37 ft 3 kts 138°
2026-05-06 06:27 -17.56075 146.01255 37 ft 2 kts 140°
2026-05-06 06:28 -17.56126 146.01286 51 ft 10 kts 140°
2026-05-06 06:28 -17.56222 146.01359 126 ft 23 kts 134°
2026-05-06 06:28 -17.56492 146.01510 320 ft 72 kts 138°
2026-05-06 06:28 -17.56666 146.02141 533 ft 109 kts 91°
2026-05-06 06:29 -17.56153 146.02727 868 ft 119 kts 29°
2026-05-06 06:29 -17.55369 146.02479 1109 ft 126 kts 321°
2026-05-06 06:29 -17.54760 146.01800 1434 ft 130 kts 308°
2026-05-06 06:29 -17.54219 146.00987 1605 ft 143 kts 301°
2026-05-06 06:30 -17.53601 146.00117 1633 ft 153 kts 303°
2026-05-06 06:30 -17.53005 145.99179 1509 ft 155 kts 298°
2026-05-06 06:30 -17.52450 145.98203 1438 ft 154 kts 296°
2026-05-06 06:30 -17.51945 145.97244 1401 ft 150 kts 296°
2026-05-06 06:31 -17.51440 145.96311 1485 ft 142 kts 297°
2026-05-06 06:31 -17.50933 145.95481 1839 ft 130 kts 299°
2026-05-06 06:31 -17.50473 145.94721 2341 ft 117 kts 297°
2026-05-06 06:31 -17.50033 145.94010 2499 ft 122 kts 297°
2026-05-06 06:32 -17.49574 145.93212 2188 ft 129 kts 294°
2026-05-06 06:32 -17.49152 145.92372 2102 ft 137 kts 293°
2026-05-06 06:32 -17.48727 145.91451 1885 ft 140 kts 289°
2026-05-06 06:32 -17.48316 145.90569 1901 ft 129 kts 289°
2026-05-06 06:33 -17.47920 145.89729 1989 ft 129 kts 290°
2026-05-06 06:33 -17.47513 145.88881 1968 ft 134 kts 290°
2026-05-06 06:33 -17.47063 145.87982 1805 ft 143 kts 293°
2026-05-06 06:33 -17.46597 145.87032 1621 ft 150 kts 292°
2026-05-06 06:34 -17.46163 145.86037 1504 ft 149 kts 292°
2026-05-06 06:34 -17.45734 145.85085 1532 ft 140 kts 294°
2026-05-06 06:34 -17.45313 145.84225 1849 ft 124 kts 294°
2026-05-06 06:34 -17.44905 145.83424 2108 ft 130 kts 292°
2026-05-06 06:35 -17.44466 145.82546 2150 ft 142 kts 293°
2026-05-06 06:35 -17.43993 145.81596 1929 ft 153 kts 292°
2026-05-06 06:35 -17.43582 145.80617 1974 ft 136 kts 290°
2026-05-06 06:35 -17.43175 145.79795 2368 ft 116 kts 294°
2026-05-06 06:36 -17.42678 145.79105 2617 ft 129 kts 303°
2026-05-06 06:36 -17.42075 145.78328 2603 ft 143 kts 303°
2026-05-06 06:36 -17.41468 145.77486 2500 ft 148 kts 304°
2026-05-06 06:36 -17.40861 145.76646 2508 ft 138 kts 304°
2026-05-06 06:37 -17.40317 145.75894 2796 ft 121 kts 303°
2026-05-06 06:37 -17.39810 145.75242 3249 ft 110 kts 303°
2026-05-06 06:37 -17.39372 145.74578 3635 ft 116 kts 296°
2026-05-06 06:37 -17.38952 145.73770 3696 ft 137 kts 292°
2026-05-06 06:38 -17.38526 145.72832 3519 ft 148 kts 289°
2026-05-06 06:38 -17.38134 145.71862 3504 ft 136 kts 287°
2026-05-06 06:38 -17.37774 145.70986 3732 ft 130 kts 289°
2026-05-06 06:38 -17.37356 145.70117 3852 ft 137 kts 292°
2026-05-06 06:39 -17.36934 145.69176 3714 ft 151 kts 291°
2026-05-06 06:39 -17.36476 145.68180 3506 ft 147 kts 292°
2026-05-06 06:39 -17.36030 145.67258 3545 ft 139 kts 293°
2026-05-06 06:39 -17.35570 145.66384 3632 ft 135 kts 294°
2026-05-06 06:40 -17.35119 145.65538 3688 ft 135 kts 294°
2026-05-06 06:40 -17.34658 145.64663 3682 ft 139 kts 294°
2026-05-06 06:40 -17.34196 145.63773 3622 ft 142 kts 294°
2026-05-06 06:40 -17.33728 145.62855 3586 ft 144 kts 294°
2026-05-06 06:41 -17.33226 145.61929 3473 ft 149 kts 295°
2026-05-06 06:41 -17.32767 145.60946 3333 ft 148 kts 291°
2026-05-06 06:41 -17.32366 145.60026 3476 ft 132 kts 291°
2026-05-06 06:41 -17.31964 145.59187 3695 ft 127 kts 292°
2026-05-06 06:42 -17.31553 145.58347 3820 ft 134 kts 292°
2026-05-06 06:42 -17.31136 145.57443 3806 ft 143 kts 291°
2026-05-06 06:42 -17.30718 145.56485 3780 ft 143 kts 291°
2026-05-06 06:42 -17.30288 145.55542 3799 ft 144 kts 292°
2026-05-06 06:43 -17.29830 145.54602 3726 ft 148 kts 295°
2026-05-06 06:43 -17.29236 145.53727 3630 ft 145 kts 313°
2026-05-06 06:43 -17.28325 145.53258 3434 ft 150 kts 345°
2026-05-06 06:43 -17.27354 145.53029 3472 ft 136 kts 350°
2026-05-06 06:44 -17.26450 145.52840 3537 ft 134 kts 349°
2026-05-06 06:44 -17.25562 145.52542 3432 ft 133 kts 343°
2026-05-06 06:44 -17.24695 145.52241 3355 ft 130 kts 343°
2026-05-06 06:44 -17.23887 145.51894 3356 ft 123 kts 330°
2026-05-06 06:45 -17.23541 145.51163 3098 ft 117 kts 265°
2026-05-06 06:45 -17.23896 145.50430 2961 ft 115 kts 208°
2026-05-06 06:45 -17.24564 145.50547 2822 ft 82 kts 150°
2026-05-06 06:45 -17.24942 145.50758 2727 ft 56 kts 141°
2026-05-06 06:46 -17.25276 145.50955 2537 ft 47 kts 153°
2026-05-06 06:46 -17.25486 145.51077 2481 ft 24 kts 159°
2026-05-06 06:46 -17.25602 145.51132 2474 ft 11 kts 156°
2026-05-06 06:46 -17.25672 145.51158 2472 ft 7 kts 169°
2026-05-06 06:47 -17.25700 145.51140 2473 ft 7 kts 221°
2026-05-06 06:47 -17.25727 145.51110 2465 ft 4 kts 242°
2026-05-06 06:47 -17.25741 145.51083 2465 ft 0 kts 243°
2026-05-06 06:50 -17.25695 145.51111 2489 ft 23 kts 223°
2026-05-06 06:50 -17.25695 145.51137 2537 ft 29 kts 163°
2026-05-06 06:51 -17.26101 145.51382 2671 ft 108 kts 137°
2026-05-06 06:51 -17.26758 145.51712 3261 ft 93 kts 141°
2026-05-06 06:51 -17.26717 145.52436 3401 ft 122 kts 64°
2026-05-06 06:51 -17.26230 145.53202 3315 ft 132 kts 54°
2026-05-06 06:52 -17.25644 145.53959 3159 ft 132 kts 48°
2026-05-06 06:52 -17.25029 145.54666 3107 ft 133 kts 48°
2026-05-06 06:52 -17.24429 145.55403 3061 ft 132 kts 51°
2026-05-06 06:52 -17.23850 145.56160 2930 ft 135 kts 55°
2026-05-06 06:53 -17.23289 145.56942 2869 ft 133 kts 55°
2026-05-06 06:53 -17.22740 145.57709 2833 ft 129 kts 55°
2026-05-06 06:53 -17.22210 145.58479 2759 ft 130 kts 54°
2026-05-06 06:53 -17.21665 145.59225 2691 ft 131 kts 52°
2026-05-06 06:54 -17.21109 145.59939 2763 ft 122 kts 50°
2026-05-06 06:54 -17.20552 145.60630 2961 ft 127 kts 52°
2026-05-06 06:54 -17.19994 145.61391 2992 ft 137 kts 56°
2026-05-06 06:54 -17.19481 145.62261 2956 ft 149 kts 62°
2026-05-06 06:55 -17.18838 145.63109 3151 ft 153 kts 51°
2026-05-06 06:55 -17.18069 145.63960 3152 ft 170 kts 51°
2026-05-06 06:55 -17.17255 145.64916 3111 ft 182 kts 50°
2026-05-06 06:55 -17.16391 145.65891 3107 ft 183 kts 51°
2026-05-06 06:56 -17.15516 145.66894 2972 ft 191 kts 50°
2026-05-06 06:56 -17.14477 145.67824 2330 ft 196 kts 40°
2026-05-06 06:56 -17.13413 145.68652 2137 ft 187 kts 39°
2026-05-06 06:56 -17.12410 145.69516 1996 ft 188 kts 41°
2026-05-06 06:57 -17.11404 145.70363 1849 ft 186 kts 41°
2026-05-06 06:57 -17.10388 145.71197 1818 ft 185 kts 39°
2026-05-06 06:57 -17.09314 145.71934 1687 ft 186 kts 35°
2026-05-06 06:57 -17.08168 145.72610 1386 ft 187 kts 28°
2026-05-06 06:58 -17.06988 145.73101 1333 ft 180 kts 22°
2026-05-06 06:58 -17.05766 145.73449 1138 ft 188 kts 15°
2026-05-06 06:58 -17.04477 145.73511 1073 ft 186 kts 355°
2026-05-06 06:58 -17.03277 145.73042 1030 ft 175 kts 334°
2026-05-06 06:59 -17.02316 145.72549 1050 ft 134 kts 338°
2026-05-06 06:59 -17.01522 145.72643 988 ft 116 kts 30°
2026-05-06 06:59 -17.01095 145.73399 684 ft 125 kts 70°
2026-05-06 06:59 -17.00865 145.74260 491 ft 114 kts 75°
2026-05-06 07:00 -17.00740 145.74891 618 ft 63 kts 67°
2026-05-06 07:00 -17.00406 145.75009 556 ft 47 kts 11°
2026-05-06 07:00 -17.00349 145.74846 276 ft 18 kts 331°
2026-05-06 07:00 -17.00211 145.74746 214 ft 28 kts 276°
2026-05-06 07:01 -17.00144 145.74689 260 ft 12 kts 223°
2026-05-06 07:01 -17.00181 145.74702 292 ft 12 kts 201°
2026-05-06 07:01 -17.00171 145.74692 221 ft 9 kts 200°
2026-05-06 07:01 -17.00184 145.74685 98 ft 3 kts 190°
2026-05-06 07:02 -17.00197 145.74680 49 ft 4 kts 182°
2026-05-06 07:02 -17.00203 145.74675 35 ft 0 kts 169°
2026-05-06 07:04 -17.00233 145.74656 131 ft 27 kts 173°
2026-05-06 07:05 -17.00491 145.74251 494 ft 90 kts 258°
2026-05-06 07:05 -17.00216 145.73587 932 ft 124 kts 331°
2026-05-06 07:05 -16.99348 145.73536 1132 ft 138 kts 21°
2026-05-06 07:05 -16.98359 145.73698 893 ft 148 kts 23°
2026-05-06 07:06 -16.97367 145.73951 807 ft 145 kts 25°
2026-05-06 07:06 -16.96381 145.74000 859 ft 140 kts
2026-05-06 07:06 -16.95397 145.74012 933 ft 140 kts
2026-05-06 07:06 -16.94410 145.73836 884 ft 150 kts 346°
2026-05-06 07:07 -16.93520 145.73270 848 ft 148 kts 332°
2026-05-06 07:07 -16.92650 145.72683 936 ft 152 kts 334°
2026-05-06 07:07 -16.91755 145.72044 915 ft 156 kts 327°
2026-05-06 07:07 -16.90950 145.71285 878 ft 159 kts 319°
2026-05-06 07:08 -16.90111 145.70521 885 ft 156 kts 324°
2026-05-06 07:08 -16.89200 145.69970 947 ft 151 kts 340°
2026-05-06 07:08 -16.88220 145.69553 1004 ft 150 kts 345°
2026-05-06 07:08 -16.87187 145.69357 990 ft 153 kts
2026-05-06 07:09 -16.86160 145.69431 977 ft 147 kts 13°
2026-05-06 07:09 -16.85117 145.69543 960 ft 150 kts
2026-05-06 07:09 -16.84082 145.69490 955 ft 151 kts
2026-05-06 07:09 -16.83046 145.69381 928 ft 149 kts 359°
2026-05-06 07:10 -16.81998 145.69257 925 ft 154 kts
2026-05-06 07:10 -16.80962 145.69089 891 ft 148 kts 352°
2026-05-06 07:10 -16.80039 145.68612 929 ft 154 kts 331°
2026-05-06 07:10 -16.79126 145.68003 804 ft 153 kts 336°
2026-05-06 07:11 -16.78199 145.67554 879 ft 143 kts 342°
2026-05-06 07:11 -16.77212 145.67266 853 ft 151 kts 351°
2026-05-06 07:11 -16.76232 145.66977 995 ft 142 kts 350°
2026-05-06 07:11 -16.75213 145.66718 909 ft 156 kts 352°
2026-05-06 07:12 -16.74169 145.66376 823 ft 157 kts 345°
2026-05-06 07:12 -16.73229 145.65801 762 ft 157 kts 326°
2026-05-06 07:12 -16.72455 145.65047 910 ft 143 kts 317°
2026-05-06 07:12 -16.71847 145.64385 1606 ft 106 kts 319°
2026-05-06 07:13 -16.71126 145.63772 1702 ft 155 kts 326°
2026-05-06 07:13 -16.70243 145.63087 1562 ft 160 kts 327°
2026-05-06 07:13 -16.69661 145.62611 1512 ft 160 kts 324°
2026-05-06 07:13 -16.68719 145.61472 1479 ft 157 kts 298°
2026-05-06 07:14 -16.68425 145.60749 1319 ft 167 kts 294°
2026-05-06 07:14 -16.67797 145.59235 973 ft 169 kts 292°
2026-05-06 07:14 -16.67500 145.58500 971 ft 161 kts 296°
2026-05-06 07:14 -16.66839 145.57608 1072 ft 152 kts 320°
2026-05-06 07:15 -16.65931 145.57087 1136 ft 151 kts 344°
2026-05-06 07:15 -16.64909 145.56795 1106 ft 151 kts 349°
2026-05-06 07:15 -16.63965 145.56345 1094 ft 150 kts 336°
2026-05-06 07:15 -16.63080 145.55777 1143 ft 147 kts 332°
2026-05-06 07:16 -16.62227 145.55226 1349 ft 143 kts 335°
2026-05-06 07:16 -16.61365 145.54652 1343 ft 154 kts 332°
2026-05-06 07:16 -16.60439 145.54008 1055 ft 163 kts 330°
2026-05-06 07:16 -16.59475 145.53374 811 ft 163 kts 334°
2026-05-06 07:17 -16.58528 145.52771 838 ft 154 kts 333°
2026-05-06 07:17 -16.57343 145.52053 1006 ft 144 kts 335°
2026-05-06 07:17 -16.56771 145.51709 1160 ft 142 kts 335°
2026-05-06 07:17 -16.55912 145.51170 1376 ft 146 kts 334°
2026-05-06 07:18 -16.55034 145.50603 1496 ft 151 kts 332°
2026-05-06 07:18 -16.54148 145.49998 1408 ft 158 kts 329°
2026-05-06 07:18 -16.53198 145.49364 1205 ft 162 kts 330°
2026-05-06 07:18 -16.52238 145.48761 1091 ft 163 kts 333°
2026-05-06 07:19 -16.51266 145.48164 1029 ft 159 kts 332°
2026-05-06 07:19 -16.50312 145.47580 922 ft 162 kts 332°
2026-05-06 07:19 -16.49341 145.47038 886 ft 153 kts 337°
2026-05-06 07:19 -16.48377 145.46632 931 ft 147 kts 343°
2026-05-06 07:20 -16.47449 145.46265 1114 ft 140 kts 343°
2026-05-06 07:20 -16.46550 145.45912 1319 ft 139 kts 345°
2026-05-06 07:20 -16.45625 145.45558 1439 ft 143 kts 343°
2026-05-06 07:20 -16.44733 145.45056 1357 ft 147 kts 327°
2026-05-06 07:21 -16.43996 145.44337 1377 ft 148 kts 320°
2026-05-06 07:21 -16.43182 145.43647 1359 ft 151 kts 326°
2026-05-06 07:21 -16.42326 145.42982 1235 ft 153 kts 326°
2026-05-06 07:21 -16.41441 145.42391 1154 ft 151 kts 338°
2026-05-06 07:22 -16.40444 145.42058 1028 ft 153 kts 351°
2026-05-06 07:22 -16.39385 145.41910 927 ft 155 kts 358°
2026-05-06 07:22 -16.38320 145.41767 828 ft 157 kts 356°
2026-05-06 07:22 -16.37228 145.41566 696 ft 158 kts 356°
2026-05-06 07:23 -16.36148 145.41599 643 ft 154 kts 11°
2026-05-06 07:23 -16.35132 145.41676 775 ft 141 kts
2026-05-06 07:23 -16.34162 145.41802 942 ft 144 kts 16°
2026-05-06 07:23 -16.33175 145.42102 919 ft 147 kts 24°
2026-05-06 07:24 -16.32237 145.42512 848 ft 147 kts 28°
2026-05-06 07:24 -16.31322 145.42946 980 ft 140 kts 33°
2026-05-06 07:24 -16.30516 145.43492 1103 ft 140 kts 40°
2026-05-06 07:24 -16.29689 145.44072 1095 ft 147 kts 38°
2026-05-06 07:25 -16.28790 145.44614 903 ft 151 kts 41°
2026-05-06 07:25 -16.28060 145.45352 843 ft 139 kts 55°
2026-05-06 07:25 -16.27493 145.46159 1000 ft 138 kts 61°
2026-05-06 07:25 -16.26941 145.46971 1103 ft 138 kts 59°
2026-05-06 07:26 -16.26220 145.47658 1154 ft 145 kts 43°
2026-05-06 07:26 -16.25260 145.48096 973 ft 158 kts 19°
2026-05-06 07:26 -16.24182 145.48036 937 ft 147 kts 351°
2026-05-06 07:26 -16.23242 145.47740 1296 ft 138 kts 349°
2026-05-06 07:27 -16.22312 145.47591 1661 ft 135 kts
2026-05-06 07:27 -16.21375 145.47807 1827 ft 143 kts 23°
2026-05-06 07:27 -16.20347 145.47988 1781 ft 157 kts 12°
2026-05-06 07:27 -16.19187 145.47856 1299 ft 180 kts 348°
2026-05-06 07:28 -16.18070 145.47164 416 ft 174 kts 330°
2026-05-06 07:28 -16.17029 145.46839 576 ft 153 kts 356°
2026-05-06 07:28 -16.14939 145.46985 815 ft 149 kts 12°
2026-05-06 07:29 -16.13917 145.47151 883 ft 149 kts 14°
2026-05-06 07:29 -16.12887 145.47301 904 ft 150 kts 12°
2026-05-06 07:29 -16.11864 145.47443 952 ft 148 kts 12°
2026-05-06 07:29 -16.10845 145.47628 1026 ft 147 kts 16°
2026-05-06 07:30 -16.09859 145.47833 1158 ft 145 kts 17°
2026-05-06 07:30 -16.08834 145.47916 1283 ft 149 kts
2026-05-06 07:30 -16.07790 145.47891 1394 ft 153 kts
2026-05-06 07:30 -16.06716 145.47823 1421 ft 157 kts 358°
2026-05-06 07:31 -16.05648 145.47543 1408 ft 161 kts 343°
2026-05-06 07:31 -16.04605 145.47120 1494 ft 158 kts 340°
2026-05-06 07:31 -16.03630 145.46636 1650 ft 156 kts 338°
2026-05-06 07:31 -16.02647 145.46131 1737 ft 159 kts 336°
2026-05-06 07:32 -16.01619 145.45636 1724 ft 165 kts 339°
2026-05-06 07:32 -16.00550 145.45152 1652 ft 170 kts 339°
2026-05-06 07:32 -15.99478 145.44605 1553 ft 175 kts 334°
2026-05-06 07:32 -15.98432 145.43977 1531 ft 168 kts 333°
2026-05-06 07:33 -15.97453 145.43386 1614 ft 162 kts 332°
2026-05-06 07:33 -15.96480 145.42775 1687 ft 163 kts 329°
2026-05-06 07:33 -15.95518 145.42145 1709 ft 165 kts 328°
2026-05-06 07:33 -15.94566 145.41456 1678 ft 167 kts 324°
2026-05-06 07:34 -15.93649 145.40674 1613 ft 171 kts 319°
2026-05-06 07:34 -15.92776 145.39821 1435 ft 177 kts 315°
2026-05-06 07:34 -15.91951 145.38856 1306 ft 178 kts 310°
2026-05-06 07:34 -15.91125 145.37940 1425 ft 167 kts 314°
2026-05-06 07:35 -15.90266 145.37214 1738 ft 154 kts 326°
2026-05-06 07:35 -15.89384 145.36619 2194 ft 150 kts 330°
2026-05-06 07:35 -15.88468 145.35966 2327 ft 166 kts 325°
2026-05-06 07:35 -15.87563 145.35166 1975 ft 177 kts 319°
2026-05-06 07:36 -15.86661 145.34379 1616 ft 161 kts 322°
2026-05-06 07:36 -15.85903 145.33606 1395 ft 143 kts 313°
2026-05-06 07:36 -15.85576 145.32785 1185 ft 114 kts 271°
2026-05-06 07:36 -15.85923 145.32169 1020 ft 98 kts 215°
2026-05-06 07:37 -15.86576 145.32101 672 ft 94 kts 166°
2026-05-06 07:37 -15.87025 145.32456 372 ft 61 kts 140°
2026-05-06 07:37 -15.87119 145.32655 127 ft 21 kts 140°
2026-05-06 07:37 -15.87187 145.32751 56 ft 7 kts 150°
2026-05-06 07:38 -15.87225 145.32791 38 ft 4 kts 154°
2026-05-06 07:38 -15.87247 145.32809 35 ft 0 kts 131°